{"data":{"norad_id":57053,"epoch":"2026-09-19T21:45:09.853056Z","epoch_age_seconds":169294,"freshness":"FRESH","line1":"1 57053U 23088F   26262.90636404 -.00000473  00000+0 -76632-5 0  9995","line2":"2 57053  43.0017  93.9709 0001058 264.2852  95.7879 15.27573041180039","mean_motion":15.27573041,"eccentricity":0.0001058,"inclination_deg":43.0017,"raan_deg":93.9709,"arg_perigee_deg":264.2852,"mean_anomaly_deg":95.7879,"bstar":-7.6632e-6,"rev_number":18003,"period_min":94.267178154527,"perigee_km":482.34401817464,"apogee_km":483.79584956185,"semimajor_km":6861.2069338682,"source":"CELESTRAK","updated_at":"2026-09-21T09:00:33.548793Z"}}